Current weather by "City, St" or "zip code"  
 
Advertise Here

Current Conditions: Columbus Air Force Base, MS

Fair


41.0 F

Last Updated on Jan 17 2021, 7:56 pm CST
Humidity: 51%
Wind Speed: W 5.8 mph
Barometer 29.98 in
Dewpoint: 23.9 F
Visibility: 10.00 mi
Precip: --
Heat Index: NA
Wind Chill: 37 F
Current conditions at:

Columbus Air Force Base, MS (KCBM)

Lat: 33.65 Lon: 88.45

Local Radar Image active severe weather and emergency alerts image image weather storm and storm spotter reports image weather observation monitoring service image
Local
Radar
Active
Alerts
Storm Reports Obs
Monitoring

Sign-up For Email & Text Message Weather Alert Notification Services


Advertise Here

Observation History for Columbus Air Force Base, MS


Time Wind
(mph)
Vis
(mi)
Weather Precip (in) Temperature (F) Relative
Humidity
Wind
Chill
(F)
Heat
Index
(F)
Pressure
Air Dwpt altimeter
(in)
sea level
(mb)
Rmks
7:56 pm CST W 5.8 10.00 Fair -- 41.0 23.9 51% 37 NA 29.98 1015.7
6:56 pm CST W 10.4 10.00 Fair -- 45.0 23.5 43% 40 NA 29.97 1015.3
5:56 pm CST W 8.1 10.00 Fair -- 46.0 22.8 39% 42 NA 29.95 1014.6
4:56 pm CST W 11.5 G 20.7 10.00 Fair -- 51.0 22.5 33% 47 NA 29.93 1013.9
3:56 pm CST W 17.3 10.00 Fair -- 55.0 24.1 30% 51 NA 29.90 1012.9
2:56 pm CST SW 16.1 G 20.7 10.00 Partly Cloudy -- 57.0 24.6 28% 53 NA 29.88 1012.2
1:56 pm CST SW 10.4 G 18.4 10.00 Fair -- 56.0 23.7 28% 53 NA 29.89 1012.5
12:56 pm CST W 12.7 10.00 Fair -- 55.0 24.1 30% 52 NA 29.91 1013.2
11:56 am CST SW 9.2 10.00 Fair -- 53.0 23.2 31% 50 NA 29.93 1013.9
10:56 am CST SW 8.1 10.00 Fair -- 51.0 28.4 41% 48 NA 29.99 1016.0
9:56 am CST SW 4.6 10.00 Fair -- 46.0 30.2 53% 44 NA 30.00 1016.3
8:56 am CST SW 6.9 10.00 Fair -- 42.0 30.7 66% 38 NA 30.00 1016.3
7:56 am CST S 3.5 10.00 Fair -- 33.0 27.7 80% NA NA 29.99 1016.0
6:56 am CST S 3.5 10.00 Mostly Cloudy -- 35.0 28.0 75% NA NA 29.99 1016.0
5:56 am CST S 3.5 10.00 Overcast -- 36.0 29.1 76% NA NA 29.98 1015.6
4:56 am CST N 0.0 10.00 Mostly Cloudy -- 35.0 28.6 77% NA NA 29.95 1014.6
3:56 am CST N 0.0 10.00 Overcast -- 34.0 28.4 80% NA NA 29.96 1014.9
2:56 am CST N 0.0 10.00 Overcast -- 32.0 28.0 84% NA NA 29.97 1015.3
1:56 am CST N 0.0 10.00 Overcast -- 32.0 27.7 83% NA NA 29.98 1015.6
12:56 am CST N 0.0 10.00 Overcast -- 31.0 26.2 81% NA NA 29.99 1016.0
11:56 pm CST N 0.0 10.00 Overcast -- 31.0 25.5 81% NA NA 30.01 1016.7
10:56 pm CST N 0.0 10.00 Fair -- 29.0 23.9 82% NA NA 30.00 1016.3
9:56 pm CST N 0.0 10.00 Fair -- 30.0 25.5 84% NA NA 30.00 1016.3
8:56 pm CST N 0.0 10.00 Fair -- 30.0 25.3 82% NA NA 29.99 1016.0

Regional Weather Observation


Columbus Air Force Base, MS (KCBM)

Fair
41.0 F

Columbus/West Point/Starkville, Golden Triangle Regional Airport, MS (KGTR)

Fair
40.0 F

George M Bryan Airport, Starkville, MS (KSTF)

Fair
32.0 F

Tupelo, Tupelo Regional Airport, MS (KTUP)

Fair
40.0 F

Unknown Station (K01M)

Overcast
82.0 F

Grenada Municipal Airport, MS (KGNF)

Partly Cloudy
68.0 F